DW1354 Weather Reports


Display with metric or nautical units.
time (UTC)temp
F
wind
direction
speed
MPH
gust
MPH
rain 1hr
in
rain 24hr
in
rain mn
in
humidity
%
barometer
mb
20210118035018 38 0.0 0.0 0.00 0.00 0.00 69 1006.6
20210118034026 39 0.0 0.0 0.00 0.00 0.00 69 1006.8
20210118033022 39 0.0 0.0 0.00 0.00 0.00 68 1006.8
20210118032034 39 0.0 0.0 0.00 0.00 0.00 68 1006.7
20210118031025 40 0.0 0.0 0.00 0.00 0.00 67 1006.6
20210118030039 40 0.0 0.0 0.00 0.00 0.00 66 1006.5
20210118025025 39 0.0 0.0 0.00 0.00 0.00 67 1006.7
20210118024019 39 0.0 0.0 0.00 0.00 0.00 68 1006.8
20210118023025 38 0.0 0.0 0.00 0.00 0.00 70 1006.8
20210118022036 39 0.0 0.0 0.00 0.00 0.00 69 1006.7
20210118021021 39 0.0 0.0 0.00 0.00 0.00 68 1006.9
20210118020034 39 0.0 0.0 0.00 0.00 0.00 69 1006.8
20210118015036 40 0.0 0.0 0.00 0.00 0.00 67 1006.8
20210118014037 40 0.0 0.0 0.00 0.00 0.00 66
20210118013022 40 0.0 0.0 0.00 0.00 0.00 66
20210118012022 40 0.0 0.0 0.00 0.00 0.00 66
20210118011032 40 0.0 0.0 0.00 0.00 0.00 66
20210118010033 40 0.0 0.0 0.00 0.00 0.00 67
20210118005037 40 0.0 0.0 0.00 0.00 0.00 68
20210118004037 40 0.0 0.0 0.00 0.00 0.00 68
20210118003024 39 0.0 0.0 0.00 0.00 0.00 70
20210118002026 39 0.0 0.0 0.00 0.00 0.00 70
20210118001026 39 0.0 0.0 0.00 0.00 0.00 70
20210118000058 39 0.0 0.0 0.00 0.00 0.00 69
20210117235153 39 0.0 0.0 0.00 0.00 0.00 68
20210117234028 39 0.0 0.0 0.00 0.00 0.00 68
20210117233026 40 0.0 0.0 0.00 0.00 0.00 67
20210117232016 40 0.0 0.0 0.00 0.00 0.00 66
20210117231037 41 0.0 0.0 0.00 0.00 0.00 64
20210117230041 42 0.0 0.0 0.00 0.00 0.00 64
20210117225025 42 0.0 0.0 0.00 0.00 0.00 63 1006.8
20210117224039 42 0.0 0.0 0.00 0.00 0.00 62 1006.9
20210117223034 42 0.0 0.0 0.00 0.00 0.00 61 1007.0
20210117222026 43 0.0 0.0 0.00 0.00 0.00 61 1006.9
20210117221019 43 0.0 0.0 0.00 0.00 0.00 60 1006.9
20210117220036 43 0.0 0.0 0.00 0.00 0.00 60 1006.6
20210117215024 43 0.0 0.0 0.00 0.00 0.00 60 1006.6
20210117214029 43 0.0 0.0 0.00 0.00 0.00 58 1006.4
20210117213046 44 0.0 0.0 0.00 0.00 0.00 58 1006.4
20210117212033 44 0.0 0.0 0.00 0.00 0.00 57 1006.7
20210117211030 44 0.0 0.0 0.00 0.00 0.00 57 1006.5
20210117210050 44 0.0 0.0 0.00 0.00 0.00 57 1006.7
20210117205033 44 0.0 0.0 0.00 0.00 0.00 56 1006.6
20210117204021 44 0.0 0.0 0.00 0.00 0.00 55 1006.4
20210117203023 45 0.0 0.0 0.00 0.00 0.00 54 1006.4
20210117202026 45 0.0 0.0 0.00 0.00 0.00 54 1006.4
20210117201021 45 0.0 0.0 0.00 0.00 0.00 53 1006.4
20210117200027 45 0.0 0.0 0.00 0.00 0.00 53 1006.4
20210117195017 46 0.0 0.0 0.00 0.00 0.00 52 1006.5
20210117194022 46 0.0 0.0 0.00 0.00 0.00 54 1006.4
20210117193025 45 0.0 0.0 0.00 0.00 0.00 56 1006.4
20210117192031 45 0.0 0.0 0.00 0.00 0.00 59 1006.4
20210117191022 45 0.0 0.0 0.00 0.00 0.00 57 1006.3
20210117190033 46 0.0 0.0 0.00 0.00 0.00 55 1006.3
20210117185021 46 0.0 0.0 0.00 0.00 0.00 56 1006.4
20210117184030 47 0.0 0.0 0.00 0.00 0.00 57 1006.2
20210117183021 47 0.0 0.0 0.00 0.00 0.00 56 1006.4
20210117182037 46 0.0 0.0 0.00 0.00 0.00 56 1006.7
20210117181027 46 0.0 0.0 0.00 0.00 0.00 57 1006.7
20210117180030 46 0.0 0.0 0.00 0.00 0.00 59 1006.8
20210117175031 45 0.0 0.0 0.00 0.00 0.00 59 1006.8
20210117174021 44 0.0 0.0 0.00 0.00 0.00 61 1006.9
20210117173023 44 0.0 0.0 0.00 0.00 0.00 59 1006.8
20210117172023 44 0.0 0.0 0.00 0.00 0.00 61 1007.1
20210117171022 44 0.0 0.0 0.00 0.00 0.00 62 1007.3
20210117170052 43 0.0 0.0 0.00 0.00 0.00 64 1007.1
20210117165025 42 0.0 0.0 0.00 0.00 0.00 66 1007.3
20210117164025 41 0.0 0.0 0.00 0.00 0.00 67 1007.4
20210117163023 41 0.0 0.0 0.00 0.00 0.00 67 1007.4
20210117162021 41 0.0 0.0 0.00 0.00 0.00 67 1007.6
20210117161021 41 0.0 0.0 0.00 0.00 0.00 67 1007.6
20210117160052 41 0.0 0.0 0.00 0.00 0.00 66 1007.6
20210117155027 40 0.0 0.0 0.00 0.00 0.00 68 1007.5
20210117154023 39 0.0 0.0 0.00 0.00 0.00 70 1007.5
20210117153027 39 0.0 0.0 0.00 0.00 0.00 70 1007.6
20210117152021 38 0.0 0.0 0.00 0.00 0.00 70 1007.8
20210117151023 37 0.0 0.0 0.00 0.00 0.00 76 1008.0
20210117150036 37 0.0 0.0 0.00 0.00 0.00 72 1008.0
20210117145022 36 0.0 0.0 0.00 0.00 0.00 72 1007.9
20210117144037 36 0.0 0.0 0.00 0.00 0.00 71 1008.0
20210117143023 36 0.0 0.0 0.00 0.00 0.00 72 1007.9
20210117142025 36 0.0 0.0 0.00 0.00 0.00 71 1007.7
20210117141021 36 0.0 0.0 0.00 0.00 0.00 72 1007.7
20210117140051 35 0.0 0.0 0.00 0.00 0.00 73 1007.6
20210117135021 35 0.0 0.0 0.00 0.00 0.00 73 1007.5
20210117134021 0 0.0 0.0 0.00 0.00 0.00
20210117133022 0 0.0 0.0 0.00 0.00 0.00
20210117132618 0 0.0 0.0 0.00 0.00 0.00
20210117132020 0 0.0 0.0 0.00 0.00 0.00
20210117131034 0 0.0 0.0 0.00 0.00 0.00
20210117130522 0 0.0 0.0 0.00 0.00 0.00
20210117125521 0 0.0 0.0 0.00 0.00 0.00
20210117125022 0 0.0 0.0 0.00 0.00 0.00
20210117124022 0 0.0 0.0 0.00 0.00 0.00
20210117123553 0 0.0 0.0 0.00 0.00 0.00
20210117123025 0 0.0 0.0 0.00 0.00 0.00
20210117122021 0 0.0 0.0 0.00 0.00 0.00
20210117121524 0 0.0 0.0 0.00 0.00 0.00
20210117120527 0 0.0 0.0 0.00 0.00 0.00
20210117120119 0 0.0 0.0 0.00 0.00 0.00
20210117115522 0 0.0 0.0 0.00 0.00 0.00
20210117114536 0 0.0 0.0 0.00 0.00 0.00
20210117114036 0 0.0 0.0 0.00 0.00 0.00
20210117113022 0 0.0 0.0 0.00 0.00 0.00
20210117112536 0 0.0 0.0 0.00 0.00 0.00
20210117111638 0 0.0 0.0 0.00 0.00 0.00
20210117111109 0 0.0 0.0 0.00 0.00 0.00
20210117110529 0 0.0 0.0 0.00 0.00 0.00
20210117105521 0 0.0 0.0 0.00 0.00 0.00
20210117105028 34 0.0 0.0 0.00 0.00 0.00 70 1005.5
20210117104612 34 0.0 0.0 0.00 0.00 0.00 70 1005.4
20210117104103 34 0.0 0.0 0.00 0.00 0.00 70 1005.3
20210117103527 34 0.0 0.0 0.00 0.00 0.00 70 1005.3
20210117102523 34 0.0 0.0 0.00 0.00 0.00 69 1005.3
20210117101526 34 0.0 0.0 0.00 0.00 0.00 69 1005.3
20210117100526 33 0.0 0.0 0.00 0.00 0.00 70 1005.3
20210117095520 33 0.0 0.0 0.00 0.00 0.00 71 1005.2
20210117094522 33 0.0 0.0 0.00 0.00 0.00 71 1005.3
20210117093522 33 0.0 0.0 0.00 0.00 0.00 70 1005.1
20210117092525 34 0.0 0.0 0.00 0.00 0.00 69 1004.9
20210117091525 33 0.0 0.0 0.00 0.00 0.00 69 1005.1
20210117090527 33 0.0 0.0 0.00 0.00 0.00 71 1005.2
20210117085521 32 0.0 0.0 0.00 0.00 0.00 72 1005.1
20210117084526 32 0.0 0.0 0.00 0.00 0.00 72 1005.1
20210117083526 33 0.0 0.0 0.00 0.00 0.00 72 1005.1
20210117082520 33 0.0 0.0 0.00 0.00 0.00 70 1005.1
20210117081523 33 0.0 0.0 0.00 0.00 0.00 70 1005.0
20210117080520 33 0.0 0.0 0.00 0.00 0.00 69 1005.1
20210117075528 33 0.0 0.0 0.00 0.00 0.00 70 1005.2
20210117074522 33 0.0 0.0 0.00 0.00 0.00 71 1005.2
20210117073525 32 0.0 0.0 0.00 0.00 0.00 73 1005.2
20210117072520 32 0.0 0.0 0.00 0.00 0.00 75 1005.2
20210117071519 31 0.0 0.0 0.00 0.00 0.00 78 1005.0
20210117070515 31 0.0 0.0 0.00 0.00 0.00 77 1004.7
20210117065535 31 0.0 0.0 0.00 0.00 0.00 76 1004.6
20210117064529 31 0.0 0.0 0.00 0.00 0.00 75 1004.4
20210117063520 31 0.0 0.0 0.00 0.00 0.00 74 1004.3
20210117062522 32 0.0 0.0 0.00 0.00 0.00 73 1004.3
20210117061521 32 0.0 0.0 0.00 0.00 0.00 73 1004.2
20210117060519 32 0.0 0.0 0.00 0.00 0.00 74 1004.1
20210117055526 32 0.0 0.0 0.00 0.00 0.00 74 1003.9
20210117054521 31 0.0 0.0 0.00 0.00 0.00 75 1003.7
20210117053531 31 0.0 0.0 0.00 0.00 0.00 75 1003.7
20210117052520 31 0.0 0.0 0.00 0.00 0.00 74 1003.7
20210117051522 30 0.0 0.0 0.00 0.00 0.00 76 1003.7
20210117050527 30 0.0 0.0 0.00 0.00 0.00 76 1003.5
20210117045518 30 0.0 0.0 0.00 0.00 0.00 76 1003.4
20210117044519 30 0.0 0.0 0.00 0.00 0.00 75 1003.3
20210117043522 31 0.0 0.0 0.00 0.00 0.00 75 1003.3
20210117042520 31 0.0 0.0 0.00 0.00 0.00 74 1003.2
20210117041526 32 0.0 0.0 0.00 0.00 0.00 72 1003.1
20210117040522 32 0.0 0.0 0.00 0.00 0.00 72 1002.9
20210117035526 31 0.0 0.0 0.00 0.00 0.00 73 1002.8